WetterOnline ( https://www.wetteronline.de )

Wetter aktuell Nova Ves

Aktuelles Wetter: Pec Pod Snezkou (820m)

6-stündlich | Neueste Meldungen
Ortszeit Temperatur Wetter
Do, 13.08. 14:00 24.3° C wolkig
Do, 13.08. 8:00 17.1° C fast wolkenlos
Do, 13.08. 2:00 13.2° C -
Mi, 12.08. 20:00 18.9° C fast wolkenlos
Mi, 12.08. 14:00 23.2° C wolkig
Mi, 12.08. 8:00 16.4° C fast wolkenlos
Mi, 12.08. 2:00 13.6° C -
Di, 11.08. 20:00 17.1° C leicht bewölkt
Ortszeit Temperatur Wetter
Do, 13.08. 19:00 20.2° C wolkig
Do, 13.08. 18:00 20.6° C leicht bewölkt
Do, 13.08. 17:00 19.7° C bewölkt
Do, 13.08. 16:00 19.8° C leichte Schauer
Do, 13.08. 15:00 24.8° C wolkig
Do, 13.08. 14:00 24.3° C wolkig
Ortszeit Relative Feuchte Sichtweite
Do, 13.08. 14:00 40% 30 km
Do, 13.08. 8:00 79% 20 km
Do, 13.08. 2:00 93% 25 km
Mi, 12.08. 20:00 77% 25 km
Mi, 12.08. 14:00 50% 30 km
Mi, 12.08. 8:00 85% 20 km
Mi, 12.08. 2:00 95% 29 km
Di, 11.08. 20:00 92% 20 km
Ortszeit Relative Feuchte Sichtweite
Do, 13.08. 19:00 83% 20 km
Do, 13.08. 18:00 85% 20 km
Do, 13.08. 17:00 84% 20 km
Do, 13.08. 16:00 83% 15 km
Do, 13.08. 15:00 37% 30 km
Do, 13.08. 14:00 40% 30 km
Ortszeit Niederschlagsmenge Niederschlagsart
Do, 13.08. 14:00 0.0 l/m2 in 6 Std. -
Do, 13.08. 8:00 0.0 l/m2 in 12 Std. -
Do, 13.08. 2:00 0.0 l/m2 in 6 Std. -
Mi, 12.08. 20:00 0.0 l/m2 in 12 Std. -
Mi, 12.08. 14:00 0.0 l/m2 in 6 Std. -
Mi, 12.08. 8:00 0.0 l/m2 in 12 Std. -
Mi, 12.08. 2:00 0.0 l/m2 in 6 Std. -
Di, 11.08. 20:00 1 l/m2 in 12 Std. Gewitter, Schauer
Ortszeit Niederschlagsmenge Niederschlagsart
Do, 13.08. 19:00 0.0 l/m2 in 1 Std. -
Do, 13.08. 18:00 0.0 l/m2 in 1 Std. -
Do, 13.08. 17:00 0.0 l/m2 in 1 Std. Schauer
Do, 13.08. 16:00 0.4 l/m2 in 1 Std. Schauer
Do, 13.08. 15:00 0.0 l/m2 in 1 Std. -
Do, 13.08. 14:00 0.0 l/m2 in 1 Std. -
Ortszeit Stärke Spitze Richtung
km/h Bft. km/h Grad Sektor
Do, 13.08. 14:00 7 2 - uml. uml.
Do, 13.08. 8:00 4 1 - 170° S
Do, 13.08. 2:00 4 1 - 240° SW
Mi, 12.08. 20:00 4 1 - 210° SW
Mi, 12.08. 14:00 4 1 - 270° W
Mi, 12.08. 8:00 0 0 - - -
Mi, 12.08. 2:00 0 0 - - -
Di, 11.08. 20:00 4 1 - 200° S
Ortszeit Stärke Spitze Richtung
km/h Bft. km/h Grad Sektor
Do, 13.08. 19:00 4 1 - 350° N
Do, 13.08. 18:00 4 1 - - -
Do, 13.08. 17:00 4 1 - 360° N
Do, 13.08. 16:00 4 1 - 60° NO
Do, 13.08. 15:00 4 1 - - -
Do, 13.08. 14:00 7 2 - uml. uml.
Ortszeit Untergrenze Bedeckung Gattung
total tief tief mittel hoch
Do, 13.08. 14:00 1290 m 5/8 4/8 Cu Ac -
Do, 13.08. 8:00 3300 m 1/8 1/8 - Ac Ci
Do, 13.08. 2:00 - - - - - -
Mi, 12.08. 20:00 1290 m 1/8 1/8 Sc - -
Mi, 12.08. 14:00 1380 m 6/8 6/8 Cu - -
Mi, 12.08. 8:00 690 m 2/8 1/8 Sc Ac -
Mi, 12.08. 2:00 - - - - - -
Di, 11.08. 20:00 3300 m 3/8 1/8 - Ac Ci
Ortszeit Bedeckungsgrad in Achtel und Wolkenuntergrenze
Do, 13.08. 19:00 3(2700m) 7(3300m)
Do, 13.08. 18:00 1(1500m) 4(3300m)
Do, 13.08. 17:00 2(1500m) 7(2400m)
Do, 13.08. 16:00 2(1200m) 7(2100m)
Do, 13.08. 15:00 5(1800m) 3(2400m)
Do, 13.08. 14:00 4(1290m)
Ortszeit Stationsdruck (hPa) Tendenz (hPa in 3 Std.)
Do, 13.08. 14:00 924 - 0,3
Do, 13.08. 8:00 924 - 0,7
Do, 13.08. 2:00 926 - 0,4
Mi, 12.08. 20:00 926 - 0,3
Mi, 12.08. 14:00 927 - 0,3
Mi, 12.08. 8:00 928 + 0,4
Mi, 12.08. 2:00 928 - 0,1
Di, 11.08. 20:00 927 + 0,3
Ortszeit Stationsdruck (hPa) Tendenz (hPa in 3 Std.)
Do, 13.08. 19:00 923 - 0,3
Do, 13.08. 18:00 923 - 0,5
Do, 13.08. 17:00 923 - 0,7
Do, 13.08. 16:00 923 - 0,7
Do, 13.08. 15:00 923 - 0,7
Do, 13.08. 14:00 924 - 0,3
Ortszeit Schneehöhe (cm)
Do, 13.08. 14:00 -
Do, 13.08. 8:00 -
Do, 13.08. 2:00 -
Mi, 12.08. 20:00 0
Mi, 12.08. 14:00 -
Mi, 12.08. 8:00 -
Mi, 12.08. 2:00 -
Di, 11.08. 20:00 0
Ortszeit Schneehöhe (cm)
Do, 13.08. 19:00 -
Do, 13.08. 18:00 -
Do, 13.08. 17:00 -
Do, 13.08. 16:00 -
Do, 13.08. 15:00 -
Do, 13.08. 14:00 -
Link zu dieser Seite / Seite empfehlen

Das Wetter in ...